Вернуться в каталог

STARLINK-11150

АктивенСвязьVLEO
NORAD 60406·PAYLOAD·🇺🇸 United States

Запущен Aug 10, 2024 с Cape Canaveral Space Force Station

Loading…

Ближайшие Пролёты (ближайшие 24 часа)

TLE

СвежийSource: CelesTrak SupGP

Эпоха: Sep 14, 2026, 21:17 UTC

1 60406C 24141J   26257.88729167  .00057531  00000+0  47387-3 0  2577
2 60406  53.1575 233.7653 0001367  97.8988 348.3342 15.69681936    11

Отслеживайте STARLINK-11150 в реальном времени с AllMySat

Download on the App Store